TimeMDT,TemperatureF,Dew PointF,Humidity,Sea Level PressureIn,VisibilityMPH,Wind Direction,Wind SpeedMPH,Gust SpeedMPH,PrecipitationIn,Events,Conditions,WindDirDegrees,DateUTC
12:52 AM,75.9,62.1,62,29.78,10.0,SW,10.4,-,N/A,,Partly Cloudy,220,2013-08-24 06:52:00
1:52 AM,75.0,62.1,64,29.76,10.0,SSW,9.2,-,N/A,,Clear,200,2013-08-24 07:52:00
2:52 AM,72.0,61.0,68,29.76,10.0,Calm,Calm,-,N/A,,Clear,0,2013-08-24 08:52:00
3:52 AM,68.0,60.1,76,29.76,10.0,Calm,Calm,-,N/A,,Clear,0,2013-08-24 09:52:00
4:52 AM,64.9,59.0,81,29.78,10.0,Calm,Calm,-,N/A,,Clear,0,2013-08-24 10:52:00
5:52 AM,63.0,57.9,84,29.80,10.0,NW,3.5,-,N/A,,Clear,310,2013-08-24 11:52:00
6:52 AM,64.0,57.9,80,29.82,10.0,WSW,4.6,-,N/A,,Clear,250,2013-08-24 12:52:00
7:52 AM,73.0,59.0,61,29.82,10.0,Calm,Calm,-,N/A,,Clear,0,2013-08-24 13:52:00
8:52 AM,82.0,57.0,42,29.82,10.0,WSW,4.6,-,N/A,,Clear,240,2013-08-24 14:52:00
9:52 AM,86.0,53.1,32,29.83,10.0,WNW,9.2,-,N/A,,Clear,290,2013-08-24 15:52:00
10:52 AM,89.1,53.1,29,29.83,10.0,WSW,5.8,-,N/A,,Clear,250,2013-08-24 16:52:00
11:52 AM,91.9,52.0,26,29.82,10.0,Variable,3.5,-,N/A,,Clear,0,2013-08-24 17:52:00
12:52 PM,93.0,50.0,23,29.81,10.0,West,8.1,-,N/A,,Clear,280,2013-08-24 18:52:00
1:52 PM,95.0,48.0,20,29.80,10.0,WNW,9.2,-,N/A,,Clear,290,2013-08-24 19:52:00
2:52 PM,96.1,48.9,20,29.79,10.0,WNW,4.6,-,N/A,,Clear,300,2013-08-24 20:52:00
3:52 PM,97.0,48.9,19,29.78,10.0,South,12.7,17.3,N/A,,Clear,180,2013-08-24 21:52:00
4:52 PM,95.0,48.9,21,29.78,10.0,South,9.2,-,N/A,,Clear,190,2013-08-24 22:52:00
5:52 PM,93.9,52.0,24,29.78,10.0,SSE,9.2,-,N/A,,Clear,150,2013-08-24 23:52:00
6:52 PM,86.0,54.0,33,29.79,10.0,SE,5.8,-,N/A,,Clear,140,2013-08-25 00:52:00
7:52 PM,81.0,55.0,41,29.79,10.0,South,5.8,-,N/A,,Clear,170,2013-08-25 01:52:00
8:52 PM,77.0,55.9,48,29.81,10.0,South,5.8,-,N/A,,Partly Cloudy,190,2013-08-25 02:52:00
9:52 PM,75.9,54.0,46,29.83,10.0,Calm,Calm,-,N/A,,Clear,0,2013-08-25 03:52:00
10:52 PM,73.9,54.0,50,29.83,10.0,Calm,Calm,-,N/A,,Clear,0,2013-08-25 04:52:00
11:52 PM,66.9,55.0,66,29.83,10.0,Calm,Calm,-,N/A,,Clear,0,2013-08-25 05:52:00